Content
SEND FEEDBACK

Daily
Averages
Monthly
Summary
United States of America

POTTS JUNCTION, GUAM


Home > North America > United States > Guam
Elevation: 110 meters     Latitude: 13 33N     Longitude: 144 50E

WEATHER
 
SELECT A DAY
Number of Records: 209,133;   Date Range: 1/1/95 - 8/28/14
 
SHARE

PRINT THIS DATA

[ ← Previous Day ]
WEATHER ALMANAC - 26 JANUARY, 2013
[ Next Day → ]
[ °F ]   °C
Weather ElementAverageHighLow
Temperature25.9 °C29.4 °C (1:54 pm)23.3 °C (3:54 am)
Dewpoint19.3 °C21.1 °C (1:54 am)16.7 °C (4:54 pm)
Humidity68.2 %87 % (3:54 am)49 % (1:54 pm)
Barometer1012.5 hPa1014.2 hPa (8:54 am)1010.5 hPa (2:54 pm)
Wind Speed19 km/h31.5 km/h (11:54 am)
Wind Gust38.9 km/h (4:54 pm)
Weather ElementAverage
Visibility16.1 km
Wind DirectionNNE (39.1 °)

Weather ElementTotal
Precipitation---
Cooling Degree Days8 (Base 18.3)
Growing Degree Days16.3 (Base 10)
Averaged from 23 records on 26 January, 2013
WEATHER CONDITIONS BREAKOUT
WIND DIRECTION BREAKOUT
WEATHER BY HOUR - 26 JANUARY, 2013
[ °F ]   °C
Local TimeTemperatureDewpointHumidityBarometerVisibilityWind DirectionWind SpeedGust SpeedPrecipitationEventsConditions
1:54 AM24.4 °C21.1 °C82 %1012.5 hPa16.1 kmNNE (30°)13 km/hMostly Cloudy
2:54 AM23.9 °C21.1 °C84 %1011.9 hPa16.1 kmNE (50°)11.1 km/hPartly Cloudy
3:54 AM23.3 °C21.1 °C87 %1011.9 hPa16.1 kmNE (40°)13 km/hPartly Cloudy
4:54 AM23.9 °C20.6 °C82 %1011.9 hPa16.1 kmNNE (30°)14.8 km/hPartly Cloudy
5:54 AM23.9 °C20.6 °C82 %1012.5 hPa16.1 kmNE (40°)13 km/hPartly Cloudy
6:54 AM23.3 °C20.6 °C85 %1012.9 hPa16.1 kmNNE (20°)13 km/hClear
7:54 AM25 °C20.6 °C76 %1013.5 hPa16.1 kmNNE (30°)16.7 km/hClear
8:54 AM26.7 °C20.6 °C69 %1014.2 hPa16.1 kmNNE (30°)29.6 km/h37 km/hClear
9:54 AM27.2 °C20 °C65 %1014.2 hPa16.1 kmNNE (30°)27.8 km/hScattered Clouds
10:54 AM28.3 °C19.4 °C58 %1013.5 hPa16.1 kmNNE (30°)27.8 km/h37 km/hMostly Cloudy
11:54 AM28.3 °C18.9 °C56 %1012.9 hPa16.1 kmNE (50°)31.5 km/hMostly Cloudy
12:54 PM28.9 °C17.8 °C51 %1011.9 hPa16.1 kmNE (40°)25.9 km/hScattered Clouds
1:54 PM29.4 °C17.8 °C49 %1011.2 hPa16.1 kmNE (40°)29.6 km/h37 km/hClear
2:54 PM28.9 °C17.8 °C51 %1010.5 hPa16.1 kmNNE (20°)24.1 km/h33.3 km/hClear
3:54 PM28.9 °C17.8 °C51 %1010.5 hPa16.1 kmNNE (30°)20.4 km/h35.2 km/hPartly Cloudy
4:54 PM27.8 °C16.7 °C51 %1011.2 hPa16.1 kmNE (40°)27.8 km/h38.9 km/hPartly Cloudy
5:54 PM26.7 °C17.2 °C56 %1011.5 hPa16.1 kmNNE (30°)25.9 km/h37 km/hPartly Cloudy
6:54 PM25 °C18.3 °C66 %1011.9 hPa16.1 kmNE (50°)16.7 km/hPartly Cloudy
7:54 PM24.4 °C18.3 °C69 %1012.5 hPa16.1 kmNE (50°)11.1 km/hPartly Cloudy
8:54 PM24.4 °C18.9 °C71 %1013.2 hPa16.1 kmNE (50°)9.3 km/hPartly Cloudy
9:54 PM24.4 °C20 °C76 %1013.5 hPa16.1 kmENE (60°)9.3 km/hPartly Cloudy
10:54 PM24.4 °C20 °C76 %1013.5 hPa16.1 kmENE (60°)13 km/hPartly Cloudy
11:54 PM24.4 °C20 °C76 %1013.5 hPa16.1 kmNE (50°)13 km/hPartly Cloudy
Hourly data recorded from PGUM, located 0 kilometers away from Potts Junction, Guam







STORIES FROM OUR PARTNERS